GFSSW_con_lsi_057.txt.gz
Lid_Strength_Index
1 1 1 0 0 0 -0 -0 -1 -1 -1 -1 -1 -1 -0 -0 1 4 9 5 3 -1 1 6 6 7 7 7 8 9 14 15 14 13 12 10 10 9 9 9 9 9 9 9 7
1 1 1 1 0 0 0 -0 -0 -1 -1 -1 -1 -0 -0 -0 5 8 2 -1 -2 -1 6 8 9 8 9 8 9 12 14 14 12 12 11 10 10 10 10 10 10 9 9 9 9
1 1 1 1 1 0 0 -0 -0 -1 -1 -1 -0 -0 -0 2 9 10 -0 -2 -2 1 6 7 7 8 10 10 9 11 13 13 11 11 10 10 11 10 10 11 10 10 11 10 10
0 1 1 1 1 1 0 -0 -0 -1 -1 -1 -1 -0 0 6 13 7 -2 -2 -2 5 6 7 8 10 11 12 10 12 10 11 10 10 10 11 10 11 10 11 11 11 11 11 12
0 1 1 0 0 0 0 -0 -0 -1 -1 -1 -1 -0 6 9 8 3 -0 -0 5 6 8 8 10 10 12 11 11 11 11 11 10 11 11 11 11 11 13 11 11 11 12 13 13
0 1 1 1 1 0 0 -0 -0 -1 -1 -1 -0 0 9 10 4 3 4 6 6 7 8 8 9 9 11 11 12 11 11 11 11 11 11 11 12 11 12 11 12 12 13 13 14
0 0 0 0 0 0 0 0 -0 -1 -1 -1 0 3 8 7 3 3 5 6 6 7 8 8 8 9 10 11 11 12 13 12 12 12 12 11 13 14 12 12 14 14 14 14 14
1 1 1 0 0 0 0 -0 -0 -0 -0 0 0 5 8 6 3 4 5 6 6 7 7 7 8 9 10 11 12 13 14 14 12 12 12 12 14 14 13 13 15 15 15 14 14
1 1 1 1 1 1 1 0 0 0 0 0 5 8 9 5 7 6 7 7 8 8 8 8 9 11 11 13 15 15 16 16 14 13 13 13 14 15 13 15 16 16 15 15 15
2 2 1 1 1 1 1 0 1 2 2 2 4 9 8 9 8 7 8 7 9 9 9 10 12 14 15 15 17 17 18 17 17 15 14 15 14 16 15 16 17 17 16 16 16
1 2 2 2 2 1 2 4 7 8 7 9 10 10 10 9 8 9 8 9 10 11 14 13 15 16 15 15 15 16 17 17 16 15 15 15 15 16 16 16 17 17 17 16 16
1 1 1 1 1 1 3 6 7 8 10 7 8 9 9 10 12 10 8 11 12 14 14 16 17 14 14 15 16 17 18 18 16 15 15 16 16 17 17 17 17 17 17 16 16
2 2 2 2 2 2 4 5 6 7 10 9 8 8 8 9 11 12 10 11 13 15 15 17 15 14 15 16 17 18 18 18 17 16 16 17 17 18 17 17 16 16 16 16 16
2 2 2 2 4 4 5 3 5 7 13 12 10 9 9 10 12 9 10 11 14 15 15 16 14 14 16 16 16 18 16 16 16 17 18 17 20 18 18 18 17 17 17 17 17
2 2 2 2 4 5 4 4 7 8 20 12 11 10 10 10 12 12 11 12 15 15 14 15 15 16 16 15 15 16 15 16 16 17 19 18 20 18 18 19 18 17 17 17 16
2 2 2 3 3 4 6 6 6 13 19 14 13 14 13 13 14 13 13 12 13 15 15 14 14 14 14 15 14 15 16 16 18 19 21 18 18 18 19 17 17 16 16 16 16
2 3 3 2 5 5 4 5 13 18 12 15 16 15 14 16 15 14 15 15 16 17 17 16 15 15 14 16 15 16 17 20 21 21 20 19 19 17 16 16 15 16 16 16 16
2 3 3 2 4 5 5 9 18 14 14 14 15 15 15 15 16 16 16 16 15 16 17 17 18 15 14 15 16 17 16 19 23 23 21 18 20 16 16 15 14 14 15 15 16
2 2 3 2 4 4 8 15 15 14 12 15 15 18 18 16 16 17 16 16 14 15 16 18 17 15 15 15 14 17 18 16 20 21 22 19 17 16 17 17 16 16 16 16 16
3 4 4 1 3 5 10 13 12 11 12 13 15 16 18 17 17 17 18 16 15 14 13 15 17 16 16 15 15 16 15 18 19 24 25 20 19 17 18 17 17 16 16 16 16
3 7 4 1 3 7 13 12 10 9 9 12 12 14 15 16 16 17 17 16 14 14 12 14 15 17 15 16 17 17 17 17 17 19 22 24 20 16 15 15 17 16 15 15 15
5 10 4 3 9 9 12 10 9 9 9 10 10 11 14 14 15 16 17 15 13 13 14 13 15 19 17 16 15 16 16 16 18 20 20 20 18 15 14 15 15 15 14 14 14
7 7 5 5 12 12 10 10 9 10 10 10 11 10 10 13 15 15 15 13 12 13 13 13 15 19 19 17 16 16 16 16 16 18 20 20 18 15 15 15 15 15 14 14 14
8 10 9 8 8 10 11 11 11 8 9 9 10 10 11 12 11 12 13 13 12 12 10 10 15 16 17 17 16 17 16 16 15 21 17 17 15 16 15 15 15 15 14 14 14
8 10 11 13 11 10 9 10 12 12 9 8 11 10 11 14 13 13 12 14 13 11 12 12 15 15 18 17 16 17 17 16 16 14 15 14 15 14 13 13 13 13 14 15 15
11 12 12 13 12 10 10 11 12 11 11 11 12 10 10 13 12 14 12 14 13 14 14 14 15 16 18 17 17 18 17 16 15 14 14 14 15 12 12 13 13 13 14 14 14
9 10 11 12 13 13 12 12 11 9 10 11 10 10 12 10 9 11 11 11 12 14 15 15 17 17 17 19 18 18 17 17 16 16 13 16 12 13 14 13 13 13 14 13 13

GFSSW_con_lsi_060.txt.gz
Lid_Strength_Index
1 1 0 0 0 0 -0 -0 -1 -1 -1 -1 -1 -1 -1 -0 0 2 6 4 2 -1 0 3 4 4 3 4 5 6 8 10 10 9 9 7 7 7 6 7 6 6 7 7 6
1 1 1 1 1 0 0 -0 -0 -1 -1 -1 -1 -0 -0 -0 3 5 1 -1 -2 -1 4 5 6 5 5 5 5 7 8 10 9 8 8 7 7 7 7 7 7 7 7 7 6
1 1 1 1 1 0 0 -0 -0 -0 -1 -1 -1 -1 -0 0 5 6 -1 -2 -2 1 4 4 4 5 7 6 6 7 9 9 9 8 7 7 8 7 8 9 8 8 8 8 7
0 0 1 1 1 1 0 -0 -0 -1 -1 -1 -1 -1 -0 3 9 5 -1 -1 -2 3 4 5 6 7 8 8 7 9 8 8 7 7 8 8 7 8 8 9 9 8 9 8 8
0 0 0 0 0 0 0 -0 -0 -1 -1 -1 -1 -0 3 5 5 2 -1 -1 2 4 5 6 7 7 9 8 8 8 8 8 7 8 8 8 9 9 10 9 9 9 9 9 9
0 0 1 1 0 0 0 0 -0 -1 -1 -1 -1 0 5 7 2 1 3 4 4 4 5 5 6 6 8 8 8 8 8 8 8 8 9 9 9 9 10 9 10 10 10 10 10
0 0 1 0 0 0 0 0 -0 -1 -1 -1 -0 2 5 5 1 1 4 4 4 4 6 5 5 6 7 8 8 8 9 8 8 9 9 8 11 11 10 10 11 11 11 11 11
1 0 0 0 0 0 0 0 -0 -0 -0 0 0 3 5 4 1 3 3 4 4 4 5 5 5 6 7 8 9 10 10 11 9 9 10 9 11 11 10 10 11 12 11 11 11
1 1 1 1 1 0 0 0 -0 -0 0 0 2 4 6 3 4 2 3 5 6 6 6 6 6 8 8 9 10 10 11 12 11 10 10 11 12 12 11 11 12 12 12 12 12
2 2 1 1 1 1 1 1 1 1 2 2 3 6 6 7 6 5 5 5 6 6 7 7 7 9 10 10 13 12 13 13 12 11 11 12 12 13 13 12 13 13 13 13 13
1 1 2 2 1 1 1 2 4 5 4 6 6 6 7 7 7 7 6 7 7 8 9 9 10 12 10 10 10 11 12 12 12 12 12 11 11 12 13 13 13 13 13 13 13
2 2 1 1 2 1 2 4 5 5 8 5 5 6 7 7 10 9 7 9 10 11 11 11 12 9 10 11 12 13 13 13 12 13 13 12 12 12 13 13 13 13 13 13 13
2 2 2 2 1 2 3 4 4 5 7 7 6 7 7 8 9 10 8 9 11 13 12 12 11 11 12 13 14 13 14 13 13 13 13 13 13 13 15 14 14 14 13 13 13
1 2 2 2 4 2 4 2 2 5 11 10 9 7 8 8 10 8 7 9 11 12 12 12 11 13 13 14 13 14 12 13 14 14 15 13 15 14 14 15 15 14 14 13 14
1 2 2 2 4 5 3 2 2 6 19 9 10 8 8 8 10 11 9 10 12 13 12 13 13 13 14 13 12 13 12 13 14 14 14 14 15 13 15 16 15 14 13 13 13
2 2 2 3 3 3 4 4 5 13 19 12 11 11 10 11 12 11 11 9 10 12 12 12 12 12 12 13 12 12 13 14 14 14 17 14 15 13 15 14 14 13 13 13 13
2 3 3 2 5 5 4 6 13 17 10 13 13 11 11 13 13 12 13 13 13 15 14 13 13 13 12 14 13 13 13 16 17 18 18 16 16 13 12 13 12 13 13 12 13
3 3 3 2 4 5 5 9 18 13 12 12 13 12 12 13 13 14 13 14 12 12 14 15 16 14 12 11 13 14 12 15 20 19 17 17 17 13 14 12 12 11 11 12 13
1 3 4 2 4 4 8 15 15 12 10 13 14 13 13 14 13 14 13 13 12 12 13 15 14 13 13 13 11 14 15 12 17 20 17 15 14 13 14 14 13 12 12 13 13
2 3 5 1 3 5 10 13 12 10 11 12 13 12 14 15 14 14 14 12 12 11 10 12 15 14 14 12 13 13 11 15 15 20 20 16 15 13 14 13 13 13 13 12 12
2 6 3 1 3 7 13 12 11 8 10 12 11 13 13 14 13 14 13 13 11 12 11 12 13 15 14 14 14 15 14 14 13 14 18 18 15 11 11 11 13 12 12 12 12
4 9 2 2 9 9 12 10 8 9 8 10 10 10 13 13 14 14 14 11 11 11 13 11 12 16 15 14 13 12 13 13 15 17 16 16 14 13 12 11 10 11 11 11 11
6 6 3 3 12 12 10 10 9 10 9 10 11 10 11 13 15 13 13 12 11 11 12 11 14 17 15 14 14 15 14 13 12 13 16 17 14 13 12 12 11 10 11 11 11
6 10 7 6 6 10 11 11 11 8 9 9 10 9 11 12 11 12 13 11 11 11 10 10 12 14 16 13 12 15 14 14 13 15 15 14 13 14 12 12 11 11 11 11 11
7 9 7 11 10 9 10 10 12 12 9 8 10 10 11 14 13 13 11 13 12 11 11 11 15 13 12 13 13 13 13 14 14 13 14 13 13 11 11 11 10 10 10 11 11
9 10 10 11 10 10 10 11 11 11 10 11 12 10 10 12 12 13 12 13 13 14 13 12 15 13 14 13 15 15 13 13 13 12 12 12 12 10 9 9 10 10 11 11 11
8 9 10 10 11 10 11 11 11 9 10 10 9 10 11 10 8 8 9 10 11 13 14 15 14 16 17 15 16 18 15 14 13 12 12 15 12 11 12 11 10 10 11 11 11

GFSSW_con_lsi_063.txt.gz
Lid_Strength_Index
1 1 0 0 0 0 -0 -1 -1 -1 -1 -1 -1 -1 -1 -1 -0 1 4 3 2 -2 1 3 3 3 3 4 4 4 8 9 9 9 8 6 7 6 5 6 6 6 6 6 5
1 1 1 0 0 0 -0 -0 -0 -1 -1 -1 -1 -1 -1 -0 2 4 1 -2 -2 -2 3 4 5 5 5 5 4 6 8 9 7 7 7 6 6 6 7 6 7 6 5 5 5
0 1 1 0 0 0 0 -0 -0 -1 -1 -1 -1 -1 -1 0 3 5 -0 -2 -2 1 3 4 4 5 6 5 6 6 8 8 8 7 6 6 7 6 7 8 7 7 7 6 6
0 0 0 0 0 0 0 -0 -0 -1 -1 -1 -1 -1 -0 1 8 4 -1 -2 -2 2 3 4 5 6 7 7 6 8 7 7 7 6 7 7 6 7 7 7 7 7 7 7 7
-0 0 0 0 0 0 0 -0 -0 -1 -1 -1 -1 -1 1 4 4 1 -1 -1 2 3 4 5 6 6 8 7 7 7 7 7 6 6 6 7 7 7 8 8 8 8 8 8 8
0 0 0 0 0 0 0 0 -0 -0 -1 -1 -1 -0 3 6 2 1 2 3 3 4 5 5 6 6 7 7 7 7 7 7 7 7 7 8 7 8 8 8 8 8 9 9 9
0 0 1 0 0 0 0 0 0 -0 -0 -1 -0 2 4 4 1 1 3 3 3 4 5 4 4 6 6 8 7 7 8 7 7 7 8 8 9 10 8 8 9 9 9 9 9
0 1 1 1 0 0 0 0 0 -0 -0 0 0 2 5 3 0 2 2 4 3 4 4 4 4 5 6 6 8 9 8 10 7 8 8 8 10 8 9 9 9 9 9 9 10
1 1 1 0 0 0 0 0 0 -0 0 0 2 3 6 2 4 2 2 4 4 4 4 5 5 7 7 9 9 9 11 10 9 8 9 9 10 10 10 10 10 10 10 10 10
1 1 1 1 1 1 1 0 -0 1 1 1 2 5 4 6 4 2 3 4 5 6 6 6 7 8 9 9 12 10 10 10 10 9 10 10 10 11 11 10 10 10 10 11 11
1 1 1 1 1 1 1 1 4 5 4 5 5 5 5 6 4 5 4 5 5 7 9 7 10 11 9 8 8 9 10 10 9 9 11 10 10 9 11 11 11 11 11 11 11
1 1 1 2 1 1 2 4 4 4 7 4 4 5 5 6 8 6 5 7 8 10 9 11 12 9 8 8 9 10 11 11 10 11 12 11 11 9 10 11 11 11 11 11 11
2 2 2 2 2 2 3 3 3 4 7 7 5 5 5 7 7 8 7 8 9 10 11 11 9 9 10 11 11 11 11 11 12 12 12 12 12 11 10 11 12 11 10 11 11
1 1 1 2 4 3 4 2 1 4 10 9 8 6 7 7 9 6 7 8 11 11 10 11 9 11 11 12 11 13 10 11 12 13 14 11 15 10 11 13 13 12 12 12 11
1 1 1 2 3 4 3 2 1 3 19 8 8 6 7 8 8 10 7 9 11 11 11 12 12 12 12 12 11 12 11 12 12 13 13 12 15 12 12 13 13 12 12 11 12
1 1 1 2 3 3 2 2 4 13 19 11 9 10 10 9 11 10 10 9 9 10 11 11 11 11 11 11 11 11 12 12 13 13 16 13 14 13 13 13 12 12 12 12 12
2 2 1 1 4 3 3 5 13 18 9 11 11 10 10 11 12 11 12 12 13 15 14 12 12 11 11 13 12 12 13 17 18 18 18 14 13 12 10 11 10 12 12 11 12
1 2 2 1 2 3 4 9 18 13 11 10 11 10 11 11 11 12 12 13 11 11 12 14 15 12 11 11 12 13 12 16 21 20 16 16 17 13 11 10 11 10 11 11 12
1 1 2 2 3 3 7 15 14 11 9 12 12 13 12 11 10 12 11 12 10 11 13 13 13 11 11 10 10 13 14 11 16 18 17 15 13 11 13 13 12 11 11 11 12
2 3 4 1 2 4 10 13 12 9 9 9 13 11 13 12 13 12 12 10 10 9 9 11 14 13 13 12 12 12 11 16 15 20 20 15 14 13 14 13 13 12 11 11 11
3 6 2 -0 2 7 13 12 10 8 8 11 11 11 11 11 11 13 11 10 9 10 10 10 12 15 14 15 14 14 14 13 13 14 18 18 14 10 10 11 12 12 11 11 11
4 9 1 1 9 9 12 10 9 8 7 10 10 10 11 10 12 12 12 10 10 10 12 10 12 15 15 12 11 11 13 13 15 17 15 15 14 11 10 9 10 11 10 10 10
6 6 2 3 12 11 9 9 8 9 9 10 11 9 9 11 14 11 10 9 10 10 11 10 13 18 15 14 14 14 13 12 12 13 16 17 15 12 11 10 9 10 10 10 10
7 10 7 6 6 9 10 11 11 8 9 8 9 9 11 12 12 12 11 11 10 10 10 10 12 15 17 13 12 15 14 13 13 15 15 14 12 13 12 11 10 9 9 9 10
7 9 8 12 10 9 9 10 11 12 9 8 11 10 11 14 13 13 11 11 12 11 11 11 16 13 12 11 12 12 13 13 14 13 14 12 12 10 11 11 10 9 9 10 10
9 9 9 10 9 9 9 11 11 11 10 11 12 10 10 13 12 14 11 11 12 13 13 12 15 14 15 12 12 14 13 12 13 13 12 12 11 8 8 9 9 9 10 11 11
6 8 9 11 11 11 11 10 10 9 9 9 9 10 11 10 8 8 9 9 10 12 14 15 15 16 17 13 14 17 14 13 12 11 11 14 11 12 11 11 10 10 10 11 10

GFSSW_con_lsi_069.txt.gz
Lid_Strength_Index
1 1 0 0 0 0 -0 -0 -0 -1 -1 -1 -1 -1 -1 -1 -0 1 5 3 2 -1 1 5 6 7 7 7 7 9 13 14 13 13 11 10 10 9 9 9 9 9 10 9 8
1 1 1 0 0 0 0 -0 -0 -1 -1 -1 -1 -1 -1 -1 2 4 1 -2 -2 -1 5 7 8 8 9 8 8 11 13 13 12 11 11 9 10 10 11 10 10 10 9 8 8
0 1 1 1 0 0 0 0 -0 -0 -1 -1 -1 -1 -1 0 5 5 -1 -2 -1 0 4 6 6 8 10 10 10 10 13 12 11 9 9 9 10 9 11 12 10 10 10 9 9
-0 0 1 1 0 0 0 -0 -0 -0 -0 -1 -1 -1 -0 3 11 4 -1 -2 -1 3 5 6 8 10 11 11 9 12 10 10 9 9 9 10 9 11 11 11 9 9 9 10 10
-0 0 0 0 1 0 -0 -0 -0 -0 -0 -1 -1 -1 2 7 6 2 -1 -1 3 5 6 7 9 9 11 11 10 11 10 9 9 9 10 9 10 11 10 10 9 9 9 10 10
-0 0 0 0 0 0 0 -0 -0 -0 -0 -1 -1 -0 4 9 3 2 2 3 4 6 7 7 8 8 10 11 11 10 10 10 9 9 9 10 11 10 11 10 10 10 11 11 10
-0 0 0 0 0 0 0 -0 -0 -0 -0 -1 -0 2 5 6 3 3 4 5 5 5 7 6 7 9 9 10 9 10 12 11 10 9 10 10 12 11 11 11 11 11 11 11 11
0 0 0 0 0 0 -0 0 -0 0 -0 -1 -0 3 7 3 3 3 4 5 5 5 5 6 6 8 9 8 10 12 12 14 11 10 11 11 14 11 11 11 12 12 12 12 12
0 0 0 0 0 0 0 0 0 -0 -0 -0 3 5 7 2 4 3 5 6 6 6 6 5 7 9 10 12 14 14 16 14 12 10 11 12 13 12 11 11 13 13 13 13 13
0 0 0 0 0 0 0 0 0 1 1 1 2 8 6 7 5 4 4 5 7 7 8 8 10 12 12 14 17 15 15 13 13 12 12 13 13 12 12 12 12 13 13 13 13
1 1 0 0 0 -0 1 2 5 6 5 7 7 7 7 6 5 5 5 6 7 8 11 10 13 14 12 13 12 13 14 15 13 12 14 13 13 12 12 13 13 14 13 13 13
1 1 1 1 0 0 2 4 4 5 8 5 5 5 6 6 9 6 5 8 9 11 10 12 14 11 11 11 12 13 15 15 13 12 14 14 14 12 12 12 12 12 13 14 15
1 1 1 1 1 1 3 4 3 4 8 7 5 5 5 7 8 8 7 8 10 12 12 14 12 9 11 12 13 14 14 14 14 14 14 15 16 15 12 12 12 11 12 13 14
1 1 1 1 3 3 4 2 2 4 12 10 8 6 7 7 10 6 6 9 11 12 11 13 10 11 13 13 12 15 12 13 13 15 18 15 18 16 14 14 13 12 13 13 14
3 1 1 1 3 4 3 2 3 5 19 10 9 6 7 9 10 10 9 10 13 12 11 14 13 13 13 13 12 14 12 13 14 16 17 17 18 18 14 14 14 13 14 14 14
3 2 1 2 3 3 2 2 4 13 19 11 10 11 11 10 11 11 11 10 11 13 13 14 13 13 13 13 12 12 13 14 15 16 20 17 17 16 14 12 11 13 14 15 14
3 2 2 1 4 2 2 4 13 18 10 12 12 11 11 12 13 13 13 14 14 16 16 14 14 13 12 14 13 13 16 19 20 21 20 16 17 15 13 13 12 14 14 15 14
3 2 3 2 2 1 3 9 17 13 13 11 11 11 13 12 13 13 14 16 14 14 16 17 17 13 13 13 15 15 15 19 23 22 20 18 19 16 13 14 13 13 13 14 14
3 3 3 3 2 2 7 15 15 13 10 12 11 12 12 12 11 13 14 15 14 13 16 17 16 13 13 13 12 16 16 13 16 24 22 18 17 14 14 15 15 15 14 15 14
5 5 5 2 2 3 10 13 12 9 9 10 14 12 14 13 12 14 14 13 13 12 11 13 16 14 15 13 14 14 13 17 15 22 22 19 19 16 16 16 15 15 14 14 14
6 8 5 2 2 7 13 12 10 7 7 10 12 13 12 13 12 13 13 12 11 12 11 12 13 17 15 16 15 16 16 15 14 18 22 23 18 14 13 14 15 14 14 14 14
7 12 5 2 9 9 12 10 8 9 7 9 9 10 12 11 12 12 13 11 10 11 13 11 13 17 17 14 13 13 14 13 17 20 18 19 17 15 14 13 13 13 13 13 14
9 9 3 3 12 12 10 11 9 9 9 9 10 9 9 11 14 12 11 9 9 9 11 10 14 18 16 15 14 15 14 13 14 16 17 20 16 15 14 14 14 14 13 13 14
8 11 9 6 6 10 11 12 12 9 9 8 10 9 10 12 10 13 12 10 10 9 8 9 13 15 18 16 16 18 15 14 13 16 18 16 15 15 15 15 15 14 13 13 14
7 11 9 12 11 9 9 10 12 12 9 9 10 10 11 13 12 13 11 11 11 9 9 10 15 14 13 13 13 15 17 15 15 14 16 14 14 12 13 14 13 13 14 14 14
8 10 8 9 10 10 11 11 11 10 10 11 11 10 10 12 11 13 11 11 11 12 11 11 15 14 15 13 13 14 14 13 15 14 13 13 14 12 11 13 13 13 13 14 14
6 5 7 9 10 11 12 12 11 9 8 8 9 10 11 10 8 8 9 9 9 12 12 13 14 16 17 15 14 17 14 14 13 12 14 15 13 12 11 11 13 13 13 13 13

GFSSW_con_lsi_072.txt.gz
Lid_Strength_Index
-0 -0 -0 0 0 0 -0 -0 -0 -0 -1 -1 -1 -1 -1 -1 -0 2 6 4 2 -1 1 6 6 7 7 8 8 10 14 15 14 13 12 10 11 10 10 10 10 9 10 9 8
0 0 0 0 0 0 0 0 -0 -0 -0 -1 -1 -1 -1 -1 3 5 1 -1 -1 -1 6 8 9 8 10 9 9 11 14 13 13 12 12 11 11 10 11 11 11 11 9 8 8
0 0 0 1 0 0 0 0 0 -0 -0 -1 -1 -1 -1 0 6 6 -1 -1 -2 1 5 6 7 9 11 11 10 12 14 12 12 10 10 10 11 10 11 12 11 10 10 9 9
-0 0 1 1 1 1 0 0 0 0 -0 -0 -1 -1 -0 4 12 5 -1 -2 -1 4 6 7 8 10 11 12 10 13 11 11 10 10 10 11 10 11 11 11 10 10 9 10 10
-0 0 0 1 1 0 0 0 0 0 0 -0 -1 -0 3 9 7 3 -1 -0 3 5 7 8 9 10 12 12 11 12 11 10 10 10 10 10 11 11 11 11 10 10 9 10 10
-0 0 0 0 0 0 0 0 0 0 0 -1 -1 -0 5 11 4 3 3 4 5 7 8 8 9 9 11 11 12 11 11 11 10 10 10 11 12 11 12 11 11 10 11 11 10
-0 0 0 0 0 0 0 -0 -0 0 0 -1 -1 2 6 8 3 3 4 5 5 6 7 7 7 9 9 11 9 10 12 11 11 10 11 11 12 12 11 12 12 12 12 11 11
-0 -0 0 0 -0 -0 -0 -0 -0 0 -0 -1 -0 4 8 4 4 4 5 6 6 6 6 6 7 8 9 9 10 12 13 15 12 11 11 11 14 11 11 12 12 12 13 12 11
0 0 0 -0 -0 -0 -0 -0 0 0 -0 -1 3 6 8 2 4 3 5 6 6 6 7 6 7 10 10 12 14 14 16 15 13 11 12 13 13 12 12 12 12 13 13 13 13
0 0 0 -0 -0 -0 -0 -0 0 1 1 1 3 8 7 7 5 4 5 6 7 8 8 9 11 13 13 13 16 16 16 15 14 12 13 14 13 13 12 12 12 13 13 13 13
1 0 0 -0 -0 -0 1 3 5 6 5 7 7 8 7 6 5 5 5 7 7 9 12 11 13 15 12 13 13 14 15 15 14 12 13 14 13 12 13 14 13 13 13 13 13
1 1 0 0 -0 -0 2 4 5 5 8 5 5 6 6 6 9 6 6 9 9 12 11 13 15 11 10 12 13 14 15 14 13 12 13 14 14 13 14 13 12 12 12 12 14
1 2 1 1 0 1 4 4 3 4 9 8 5 6 6 7 8 8 7 8 11 12 12 13 11 10 11 13 14 14 15 15 14 13 15 16 15 15 13 13 13 12 11 12 13
1 1 1 1 3 3 4 2 2 4 12 10 8 7 8 7 9 6 6 8 10 11 11 13 11 11 13 13 13 15 13 13 14 15 17 15 18 16 14 14 13 12 12 13 14
3 3 1 1 3 4 3 2 2 5 19 9 8 5 7 8 9 9 8 9 12 11 11 13 13 13 13 13 12 14 13 14 15 17 18 17 19 17 15 15 13 12 13 14 14
3 3 3 2 3 3 2 2 4 13 19 12 10 10 10 9 11 10 10 9 10 12 13 14 13 12 12 13 12 13 14 15 16 17 20 17 17 15 14 13 11 11 14 14 14
3 3 3 3 4 2 2 5 14 18 10 13 12 11 11 12 13 12 13 13 14 16 16 14 14 14 13 14 14 14 16 20 21 21 20 17 18 14 13 13 12 12 14 15 15
4 3 3 3 2 2 3 9 18 13 13 11 11 12 13 12 13 13 14 16 14 15 17 17 18 14 13 13 14 15 15 19 23 22 20 18 19 16 13 12 14 13 13 15 15
4 4 4 3 2 2 7 15 15 13 11 12 12 13 14 12 13 14 15 15 14 13 15 17 17 14 14 14 12 15 16 14 18 25 22 18 16 13 13 14 14 14 15 16 15
6 6 6 2 2 5 10 13 12 10 9 10 14 12 15 13 13 14 15 13 13 12 11 14 17 15 15 13 14 15 14 18 17 23 23 19 18 16 14 14 14 15 16 16 15
7 9 6 2 3 8 13 12 10 8 8 10 12 13 12 13 12 14 14 12 12 12 11 12 13 17 15 16 16 16 16 16 15 18 21 23 18 14 13 13 14 15 15 15 15
7 12 6 2 10 10 13 10 8 9 8 9 9 10 12 11 13 13 13 11 10 11 14 12 13 18 16 14 13 14 14 14 16 20 19 19 16 14 14 14 13 14 14 15 14
9 10 5 4 12 13 11 11 10 9 9 9 10 9 9 11 14 11 11 9 9 11 12 10 14 18 17 15 14 15 14 13 14 17 18 19 17 15 14 14 15 14 15 15 15
8 12 9 6 7 10 11 12 12 10 9 8 10 9 10 12 10 12 12 9 8 9 8 9 13 15 18 16 15 17 15 14 13 16 18 16 15 16 15 15 14 14 15 15 16
8 11 9 11 11 9 9 10 12 12 10 9 10 10 11 13 12 13 11 10 10 9 9 10 15 13 13 13 15 16 15 14 14 14 16 14 14 12 13 13 13 14 15 15 15
9 11 8 10 8 9 10 11 12 10 10 11 11 10 10 12 11 13 11 11 11 11 10 10 15 13 15 13 13 15 14 15 14 13 13 13 13 12 11 12 14 13 14 15 15
8 6 8 10 11 10 10 10 11 10 9 9 10 10 11 10 8 8 8 8 9 10 12 12 14 15 17 14 14 17 14 13 13 13 12 15 12 10 11 11 12 13 14 14 14

GFSSW_con_lsi_075.txt.gz
Lid_Strength_Index
-0 0 0 0 0 0 -0 -0 -0 -0 -1 -1 -1 -1 -1 -1 -0 3 7 4 3 -1 1 6 7 8 8 9 9 11 14 16 15 13 12 11 12 11 11 10 11 10 10 10 8
-0 0 0 0 0 0 0 0 -0 -0 -0 -1 -1 -1 -1 -1 3 6 1 -1 -1 -0 6 8 9 9 10 10 10 12 15 14 13 13 12 11 11 10 11 11 12 11 10 9 8
-0 0 0 0 0 0 0 0 -0 -0 -0 -1 -1 -1 -1 1 7 7 -1 -1 -1 1 6 7 8 9 11 11 11 13 14 13 13 11 11 11 12 11 12 13 11 11 10 9 8
-0 -0 0 0 0 0 0 0 -0 -0 -0 -0 -1 -1 -0 4 14 6 -1 -1 -1 4 6 8 9 11 12 12 10 12 12 12 11 11 11 11 11 12 12 11 10 10 10 10 9
-1 -0 -0 0 0 0 0 0 0 -0 -0 -0 -1 -0 4 10 8 4 -0 1 4 6 8 8 10 10 12 12 12 13 12 11 11 11 11 10 11 11 11 12 11 10 10 10 10
-0 -0 -0 -0 0 0 0 0 -0 -0 -0 -0 -1 -0 6 12 4 4 4 5 6 7 8 8 9 9 11 12 12 12 11 11 11 11 11 11 12 12 12 12 11 11 11 11 11
-0 -0 0 0 0 0 0 0 -0 -0 0 -0 -1 2 7 9 4 4 5 6 6 7 8 8 8 10 10 12 10 11 12 11 11 11 11 11 12 12 12 12 12 12 12 12 11
-0 -0 -0 0 -0 -0 -0 -0 -0 -0 -0 -1 -1 4 9 4 4 5 6 6 6 6 7 7 7 8 10 10 11 13 13 15 12 12 11 11 14 12 12 12 12 12 13 12 12
-0 -0 -0 -0 -0 -0 -0 -0 -0 -0 -0 -1 4 6 9 3 5 4 6 7 7 7 7 6 8 10 11 13 14 14 16 16 13 11 12 13 14 13 13 13 13 14 13 12 12
0 -0 -0 -0 -0 -0 -0 -0 -0 0 1 1 3 8 7 7 5 4 6 6 8 8 9 9 11 13 14 14 16 16 16 16 15 13 13 14 14 12 13 13 13 14 14 13 13
0 0 -0 -0 -0 -1 1 3 5 6 5 7 7 9 7 6 5 6 6 7 8 9 12 11 13 15 12 13 13 14 15 15 14 12 14 14 14 12 12 14 14 14 14 13 12
1 1 0 -0 -1 -1 2 5 5 6 8 5 5 6 6 6 8 7 6 9 10 12 11 13 15 11 11 12 13 14 15 15 14 13 14 14 14 13 13 13 13 12 13 13 13
1 1 1 0 -0 0 3 4 3 4 9 7 5 6 6 7 8 7 7 9 11 12 12 13 12 11 11 13 14 14 15 16 15 14 15 16 16 15 13 13 12 12 11 11 12
1 1 1 1 3 2 3 2 2 4 12 10 8 6 7 7 9 6 6 8 11 12 12 13 11 11 12 13 13 16 13 13 14 16 18 16 18 16 14 14 14 12 11 12 13
2 2 1 1 3 4 2 2 2 5 20 10 9 6 7 7 9 9 7 9 11 11 11 13 13 13 14 13 12 14 13 14 15 17 18 19 19 17 15 15 13 11 11 13 13
3 3 2 2 3 3 2 2 4 13 19 12 10 11 10 10 11 10 9 9 9 11 12 13 12 11 12 12 12 13 14 15 16 17 20 18 17 15 16 14 13 11 12 13 14
4 3 4 2 4 2 2 4 14 18 11 13 13 12 12 13 13 12 12 12 13 16 16 14 14 13 13 14 14 14 16 20 21 22 20 19 19 15 13 13 12 12 12 13 14
4 4 4 4 3 2 3 10 18 14 13 12 12 12 13 13 14 14 14 15 14 15 16 17 18 14 13 13 14 16 16 19 23 22 20 18 20 17 14 13 12 13 13 14 15
4 5 5 3 3 3 7 15 15 13 11 12 12 14 14 13 13 15 15 16 14 14 15 17 17 15 14 14 12 16 17 14 18 25 23 19 17 14 14 13 12 14 15 15 16
6 7 7 2 3 5 10 15 12 10 10 11 14 13 15 14 14 15 16 14 14 12 12 14 17 16 15 13 14 15 14 18 18 24 24 20 19 17 14 13 13 14 15 16 16
6 9 6 2 3 8 13 13 11 9 8 10 12 12 12 13 13 15 14 13 12 13 11 13 15 17 15 16 16 16 17 16 15 18 22 23 18 15 14 14 14 13 14 15 16
7 11 5 2 9 9 14 12 9 9 8 9 9 10 12 12 12 13 13 12 11 12 14 12 14 20 17 15 14 15 15 14 16 20 19 20 17 14 14 14 14 13 14 15 15
8 9 5 3 12 12 11 11 10 10 9 10 11 10 9 11 14 12 12 10 11 12 13 11 14 18 17 14 14 15 15 13 14 16 19 19 17 15 14 14 14 14 15 15 16
8 12 8 6 7 9 11 11 11 10 10 9 10 9 10 12 10 12 12 10 10 11 9 9 13 16 17 15 14 16 15 14 13 16 17 16 14 13 15 14 14 14 15 16 16
9 11 9 12 11 9 9 10 11 12 10 9 10 10 11 14 13 13 11 10 10 9 9 10 15 14 13 14 14 15 14 14 15 14 16 14 14 12 11 12 11 13 14 15 16
11 11 9 11 9 9 9 10 11 10 10 11 11 11 10 12 12 13 11 11 12 11 10 10 15 13 15 13 13 14 14 14 13 13 13 13 13 10 11 11 13 12 14 15 15
6 8 9 11 12 12 11 10 10 9 8 8 9 10 11 10 8 8 8 8 9 11 12 13 14 15 17 13 14 17 14 13 13 12 12 14 12 10 11 11 11 12 13 14 14